This demonstration page uses our WeatherBlox Daily Observations layout. Learn more.

Left ArrowRight Arrow

Hourly Observations for August 2, 2021

Temp ( °F °C ) Dew Point ( °F °C ) Humidity (%) Winds ( mph kmh ) Pressure ( in mb ) Visibility ( mi km ) Precip ( " mm )
12:53 am 00:53 Clear with Smoke 70 21.1 56 13.3 61 61 N 7 11 30.14 1021 6 10 N/A
1:53 am 01:53 Clear with Smoke 67 19.4 56 13.3 68 68 N 6 9 30.14 1021 6 10 N/A
2:53 am 02:53 Clear with Smoke 67 19.4 57 13.9 71 71 NNE 7 11 30.13 1020 5 8 N/A
3:53 am 03:53 Clear with Smoke 66 18.9 56 13.3 70 70 NNE 6 9 30.13 1020 6 10 N/A
4:53 am 04:53 Clear with Smoke 62 16.7 56 13.3 80 80 NW 3 6 30.14 1021 6 10 N/A
5:53 am 05:53 Clear with Smoke 61 16.1 57 13.9 87 87 NNW 8 13 30.15 1021 5 8 N/A
6:53 am 06:53 Sunny with Smoke 63 17.2 56 13.3 78 78 N 7 11 30.15 1021 5 8 N/A
7:53 am 07:53 Sunny with Smoke 65 18.3 57 13.9 76 76 N 7 11 30.15 1021 5 8 N/A
8:53 am 08:53 Sunny with Smoke 70 21.1 58 14.4 66 66 N 8 13 30.16 1022 6 10 N/A
9:53 am 09:53 Sunny with Smoke 74 23.3 59 15 60 60 N 7 11 30.16 1021 6 10 N/A
10:53 am 10:53 Partly Cloudy with Smoke 78 25.6 59 15 52 52 NNE 13 20 30.16 1021 6 10 N/A
11:53 am 11:53 Hazy 178 81 135 57 33 33 NNE 10 17 29.91 1013 7 11 N/A
12:53 pm 12:53 Hazy 81 27.2 56 13.3 42 42 N 6 9 30.14 1021 7 11 N/A
1:53 pm 13:53 Hazy 83 28.3 55 12.8 38 38 N 7 11 30.11 1020 6 10 N/A
2:53 pm 14:53 Mostly Sunny 85 29.4 56 13.3 37 37 N 10 17 30.10 1019 7 11 N/A
3:53 pm 15:53 Hazy 84 28.9 54 12.2 36 36 N 5 7 30.07 1018 6 10 N/A
4:53 pm 16:53 Hazy 83 28.3 54 12.2 37 37 VRB 7 11 30.06 1018 6 10 N/A
5:53 pm 17:53 Hazy 83 28.3 53 11.7 36 36 ENE 8 13 30.06 1018 6 10 N/A
6:53 pm 18:53 Hazy 82 27.8 53 11.7 37 37 NE 10 17 30.05 1018 6 10 N/A
7:53 pm 19:53 Hazy 78 25.6 54 12.2 43 43 E 12 19 30.06 1018 5 8 N/A
8:53 pm 20:53 Hazy 75 23.9 53 11.7 46 46 E 7 11 30.06 1018 5 8 N/A
9:53 pm 21:53 Hazy 73 22.8 54 12.2 51 51 E 5 7 30.07 1018 6 10 N/A
10:53 pm 22:53 Hazy 70 21.1 54 12.2 57 57 N N/A 30.09 1019 6 10 N/A
11:53 pm 23:53 Hazy 67 19.4 55 12.8 66 66 N N/A 30.09 1019 7 11 N/A

Powered by AerisWeather